Погода в Тикси

Погода в Тикси : погода сейчас, прогноз погоды и архив. Всё, что Вы хотите узнать о погоде в Тикси!

Хотите узнать прогноз погоды в Тикси? Тогда Вам сюда: Погода в Тикси

Поиск расширенной информации на нашем сайте:

Другие новости

Новости СМИ2

Главная страница сайта

Новости сайта

03.07.2017

Напоминаем, что на нашем специализированном сайте Метеоцентр.Азия вы можете получить высокодетализированные автоматические прогнозы погоды по пунктам России, СНГ и мира в авиационном формате (включающие направление и скорость ветра, видимость, явления погоды, количество и форму облачности, нижнюю и верхнюю границу облачности).

Рекомендуем: Запчасти КамАЗ на экспорт: KAMAZ spare parts and details

Погода в Тикси - сегодня

Время (UTC), дата Ветер
(°,м/с) 
Видим.   Явления Облачность Т
(°С)
Тd
(°С)
f(%) Тe
(°С)
Pmin
(гПа)
dP
(гПа)
Po
(мм)
O2
(г/м3)
Тmin Tmax R s Состояние
почвы
00 22.11.17 350 (С) 8-10{12}  4000 м  слаб. снег  10/10 600 м 
[Sc]
-20.5 -22.1 87 -29  1020.6  1.1  765  335  -20.6    14  неравномерный
сухой снег
100% 
03 22.11.17 340 (С) 9-11{13}  4000 м  слаб. снег  10/10 600 м 
[Sc]
-20.7 -22.4 86 -30  1022.2  1.6  766  336  -20.9         
06 22.11.17 340 (С) 8-10{13}  4000 м  слаб. снег  10/5 600 м верхняя 
[Sc|Ci fib]
-22.1 -23.8 86 -31  1023.5  1.3  767  338           
09 22.11.17 340 (С) 8-10{13}  20000 м  позёмок{снег}  10/3 1000 м верхняя 
[Sc|Ci fib]
-21.9 -23.6 86 -31  1024.5  768  338           
12 22.11.17 340 (С) 8-10{13}  20000 м  позёмок{снег}  10/3 1000 м верхняя 
[Sc|Ci fib]
-22.2 -23.9 86 -31  1025.8  1.2  769  339    -20.1  0.9     
15 22.11.17 340 (С) 8-10{12}  4000 м  слаб. снег  10/10 600 м 
[Sc]
-20.6 -22.3 86 -29  1025.7  768  336           
18 22.11.17 340 (С) 10-12{14}  4000 м  слаб. снег  10/10 600 м 
[Sc]
-20.8 -22.5 86 -31  1025.7  767  336           
21 22.11.17 340 (С) 10-12{14}  4000 м  слаб. снег  10/10 600 м 
[Sc]
-21.5 -23.2 86 -31  1025.9  0.2  769  338           
00 23.11.17 340 (С) 10-12{14}  4000 м  слаб. снег  10/10 1000 м 
[Sc]
-20.9 -22.6 86 -31  1025.6  -0.3  769  337  -22.3    0.6  14  неравномерный
сухой снег
100% 
03 23.11.17 320 (СЗ) 11-15{17}  0500 м  слаб. снег  10/10 300 м 
[Sc]
-20.8 -22.7 85 -31  1026.2  0.6  769  337           
06 23.11.17 350 (С) 8-12{15}  20000 м  позёмок{снег}  10/6 600 м верхняя 
[Sc|Ci fib]
-22.1 -24 85 -31  1027.2  0.9  770  339           
09 23.11.17 340 (С) 7-10{12}  20000 м  позёмок  10/6 600 м верхняя 
[Sc|Ci fib]
-20.9 -22.9 84 -29  1027.9  0.8  770  338           
12 23.11.17 320 (СЗ) 7{10}  20000 м  позёмок  10/10 1000 м 
[Sc]
-21.4 -23.5 83 -30  1028.3  0.4  771  339    -20.3  0.4     
15 23.11.17 320 (СЗ) 20000 м    10/10 600 м 
[Sc]
-23.2 -25.7 80 -28  1028.6  0.2  771  341           
18 23.11.17 300 (СЗ) 20000 м    10/10 300 м 
[Sc]
-24 -26.5 80 -29  1028.6  771  342           
21 23.11.17 290 (З) 20000 м    10/10 300 м 
[Sc]
-24.2 -26.7 80 -31  1027.8  -0.8  770  342           
00 24.11.17 300 (СЗ) 20000 м    10/8 300 м средняя, верхняя 
[Sc|Ac trans|Ci fib]
-24.4 -27.2 77 -31  1027.6  -0.2  770  343  -25.3      18  неравномерный
сухой снег
100% 
03 24.11.17 тихо ()   4000 м  слаб. снег  10/10 300 м 
[Sc]
-22.5 -24.9 81 -23  1026.8  -0.8  769  340           
06 24.11.17 260 (З) 4000 м  слаб. снег  10/10 300 м 
[Sc]
-20.6 -23 81 -25  1025.3  -1.4  768  337           
09 24.11.17 290 (З) 4000 м  слаб. снег  10/10 1000 м 
[Sc]
-18.8 -20.6 86 -26  1024.9  -0.4  768  334           
12 24.11.17 310 (СЗ) 8-10{12}  4000 м  слаб. снег  10/10 600 м 
[Sc]
-20.3 -21.8 88 -29  1023.2  -1.7  767  335    -18.6  0.2     
15 24.11.17 320 (СЗ) 8-10{12}  4000 м  слаб. снег  10/10 1000 м 
[Sc]
-28.7 -20.1 100 -39  1020.7  -2.5  765  346           
18 24.11.17 330 (СЗ) 8{10}  4000 м  слаб. снег  10/10 1000 м 
[Sc]
-18.7 -20.1 89 -27  1019.1  -1.6  764  332           
21 24.11.17 330 (СЗ) 8-10{12}  4000 м  слаб. снег  10/10 1000 м 
[Sc]
-18 -19.3 90 -26  1017.3  -1.8  762  330           
00 25.11.17 310 (СЗ) 8-10{12}  4000 м  слаб. снег  10/10 300 м 
[Sc]
-18.9 -20.1 90 -27  1016.2  -1.1  761  331  -19    0.2  17  неравномерный
сухой снег
100% 
Время (UTC), дата Ветер
(°,м/с) 
Видим.   Явления Облачность Т
(°С)
Тd
(°С)
f(%) Тe
(°С)
Pmin
(гПа)
dP
(гПа)
Po
(мм)
O2
(г/м3)
Тmin Tmax R s Состояние
почвы

Для получения пояснительной информации подведите курсор к названию столбца.

ПОГОДА в Тикси - архив

Всё, что Вы хотите узнать о погоде в Тикси - удобно и подробно!

Выберите нужную дату (начиная с 1 января 2015* года) и нажмите кнопку "Найти".
Будут отображены архивные сводки погоды по пункту Тикси, начиная с указанной даты.


Отображать данные в формате CSV (для использования в таблицах Excel)


Внимание! Наш архив погоды предназначен исключительно для личного некоммерческого использования в познавательных целях. Если Вам необходимы официальные справки о состоянии погоды (для производственных, юридических, коммерческих и т.п. целей), обращайтесь в органы Росгидромета.

*Примечание: данная дата относится к архиву по метеостанциям СССР (Россия, СНГ, Балтия).
Архив по метеостанциям Зарубежной Европы и Азии (кроме Китая) хранится 10 дней, по другим регионам земного шара (Китай, Африка, Америка, Австралия, Океания) - 1 день.

Тикси - район местоположения метеостанции


Название, широта, долгота, высота метеостанции:
Тикси (посёлок) 71.6°ш. 128.9°д. 7 м над ур. моря [Российская Федерация]

Дополнительная информация

В oтличие oт бoльшинства пoгoдных сайтoв мы публикуем пoдрoбную метеoинфoрмацию в детальнoм прoфессиoнальнoм фoрмате.

Характеристики температуры и влажнoсти вoздуха измеряются на высoте 2 м в тени вдали oт зданий и деревьев.
Скoрoсть ветра измеряется на высoте 10 м (на урoвне рoста челoвека скoрoсть ветра ниже в 1.5-2 раза). Если метеoстанция нахoдится в гoрoде или в лесу, тo скoрoсть ветра занижена на 2-4 м/с пo сравнению с oткрытым местoм. Скoрoсть ветра над акватoриями крупных рек и oзёр, а также на вершинах хoлмoв на 2-5 м/с выше, чем в oбычных услoвиях.
Атмoсфернoе давление в разных тoчках местнoсти мoжет значительнo oтличаться oт давления на метеoстанции, в зависимoсти oт услoвий рельефа (при пoдъёме на 10 м давление пoнижается примернo на 1 мм рт.ст.).